DW4221 Weather Reports


Display with metric or nautical units.
time (UTC)temp
F
wind
direction
speed
MPH
gust
MPH
rain 1hr
in
rain 24hr
in
rain mn
in
humidity
%
barometer
mb
20260509053052 44 36 0.0 3.0 0.00 0.00 0.00 46 1001.7
20260509051558 45 0 0.0 6.0 0.00 0.00 0.00 47 1001.7
20260509050054 45 19 0.0 3.0 0.00 0.00 0.00 47 1001.6
20260509044551 44 14 2.0 4.0 0.00 0.00 0.00 47 1001.5
20260509043055 43 22 0.0 4.0 0.00 0.00 0.00 50 1001.5
20260509041554 41 0 0.0 2.0 0.00 0.00 0.00 54 1001.5
20260509040053 41 0 0.0 0.0 0.00 0.00 0.00 57 1001.3
20260509034551 41 0 0.0 0.0 0.00 0.00 0.00 53 1001.3
20260509033100 42 0 0.0 0.0 0.00 0.00 0.00 52 1001.2
20260509031552 44 0 0.0 0.0 0.00 0.00 0.00 51 1001.4
20260509030054 46 0 0.0 0.0 0.00 0.00 0.00 44 1001.2
20260509024548 48 0 0.0 0.0 0.00 0.00 0.00 43 1001.4
20260509023050 49 0 0.0 1.0 0.00 0.00 0.00 41 1001.3
20260509021553 50 0 1.0 4.0 0.00 0.00 0.00 40 1001.4
20260509020052 51 360 1.0 8.0 0.00 0.00 0.00 40 1001.5
20260509014549 52 285 0.0 8.0 0.00 0.00 0.00 39 1001.2
20260509013055 53 0 2.0 11.0 0.00 0.00 0.00 42 1001.1
20260509011548 54 309 3.0 11.0 0.00 0.00 0.00 40 1000.9
20260509010052 55 302 3.0 15.0 0.00 0.00 0.00 40 1000.8
20260509004550 56 289 3.0 12.0 0.00 0.00 0.00 42 1000.3
20260509003052 57 0 1.0 6.0 0.00 0.00 0.00 40 1000.2
20260509001550 57 84 1.0 8.0 0.00 0.00 0.00 39 999.9
20260509000050 58 328 1.0 7.0 0.00 0.00 0.00 37 1000.2
20260508234552 58 275 3.0 14.0 0.00 0.00 0.00 36 1000.2
20260508233114 60 285 2.0 7.0 0.00 0.00 0.00 33 1000.3
20260508231552 58 0 0.0 11.0 0.00 0.00 0.00 35 1000.5
20260508230056 58 35 1.0 6.0 0.00 0.00 0.00 35 1000.8
20260508224605 58 0 2.0 7.0 0.00 0.00 0.00 34 1000.7
20260508223050 58 296 2.0 9.0 0.00 0.00 0.00 34 1000.9
20260508221549 58 309 0.0 6.0 0.00 0.00 0.00 34 1000.8
20260508220050 58 253 3.0 9.0 0.00 0.00 0.00 35 1001.1
20260508214551 58 229 0.0 6.0 0.00 0.00 0.00 36 1001.1
20260508213054 58 235 4.0 10.0 0.00 0.00 0.00 34 1001.3
20260508211551 58 234 3.0 18.0 0.00 0.00 0.00 35 1001.4
20260508210055 58 237 5.0 11.0 0.00 0.00 0.00 32 1001.2
20260508204553 58 247 2.0 12.0 0.00 0.00 0.00 34 1001.5
20260508203058 59 256 3.0 19.0 0.00 0.00 0.00 33 1001.7
20260508201552 58 249 4.0 13.0 0.00 0.00 0.00 33 1001.7
20260508200105 58 238 4.0 12.0 0.00 0.00 0.00 35 1001.9
20260508194552 57 296 5.0 14.0 0.00 0.00 0.00 35 1002.2
20260508193058 57 268 3.0 15.0 0.00 0.00 0.00 34 1002.3
20260508191555 57 22 4.0 15.0 0.00 0.00 0.00 33 1002.4
20260508190053 56 221 4.0 13.0 0.00 0.00 0.00 34 1002.7
20260508184554 56 236 2.0 11.0 0.00 0.00 0.00 36 1003.0
20260508183055 56 293 3.0 12.0 0.00 0.00 0.00 36 1003.2
20260508181557 56 192 4.0 10.0 0.00 0.00 0.00 34 1003.3
20260508180052 56 290 2.0 14.0 0.00 0.00 0.00 35 1003.8
20260508174610 55 275 3.0 12.0 0.00 0.00 0.00 34 1003.8
20260508173051 55 174 2.0 11.0 0.00 0.00 0.00 34 1004.0
20260508171557 55 232 3.0 13.0 0.00 0.00 0.00 34 1004.5
20260508170054 55 200 4.0 14.0 0.00 0.00 0.00 36 1004.7
20260508164552 56 256 3.0 8.0 0.00 0.00 0.00 34 1004.8
20260508163051 55 261 5.0 13.0 0.00 0.00 0.00 33 1005.1
20260508161551 56 317 2.0 10.0 0.00 0.00 0.00 35 1005.2
20260508160053 54 246 2.0 12.0 0.00 0.00 0.00 38 1005.4
20260508154551 54 231 3.0 7.0 0.00 0.00 0.00 34 1005.6
20260508153047 53 244 2.0 10.0 0.00 0.00 0.00 37 1005.9
20260508151557 53 293 2.0 9.0 0.00 0.00 0.00 37 1006.1
20260508150050 53 15 2.0 10.0 0.00 0.00 0.00 39 1006.0
20260508144552 51 283 2.0 8.0 0.00 0.00 0.00 42 1006.2
20260508143101 49 261 2.0 6.0 0.00 0.00 0.00 47 1006.3
20260508141556 47 164 0.0 6.0 0.00 0.00 0.00 50 1006.5
20260508140059 45 288 2.0 8.0 0.00 0.00 0.00 54 1006.7
20260508134554 43 175 1.0 6.0 0.00 0.00 0.00 59 1006.7
20260508133057 41 230 1.0 5.0 0.00 0.00 0.00 61 1006.9
20260508131557 39 242 0.0 3.0 0.00 0.00 0.00 67 1006.9
20260508130103 36 32 0.0 2.0 0.00 0.00 0.00 69 1007.1
20260508124556 34 0 0.0 2.0 0.00 0.00 0.00 73 1007.0
20260508123057 32 0 0.0 0.0 0.00 0.00 0.00 78 1007.0
20260508121557 29 0 0.0 0.0 0.00 0.00 0.00 85 1007.0
20260508120054 26 0 0.0 0.0 0.00 0.00 0.00 89 1006.9
20260508114552 24 0 0.0 0.0 0.00 0.00 0.00 90 1007.0
20260508113050 22 0 0.0 0.0 0.00 0.00 0.00 91 1006.9
20260508111552 22 0 0.0 0.0 0.00 0.00 0.00 90 1006.9
20260508110055 22 0 0.0 0.0 0.00 0.00 0.00 90 1007.1
20260508104600 22 0 0.0 0.0 0.00 0.00 0.00 89 1006.9
20260508103052 22 0 0.0 0.0 0.00 0.00 0.00 89 1007.0
20260508101554 22 0 0.0 0.0 0.00 0.00 0.00 89 1007.1
20260508100051 23 0 0.0 0.0 0.00 0.00 0.00 89 1007.1
20260508094600 23 0 0.0 0.0 0.00 0.00 0.00 89 1007.0
20260508093100 24 0 0.0 0.0 0.00 0.00 0.00 88 1007.2
20260508091604 24 0 0.0 0.0 0.00 0.00 0.00 88 1007.1
20260508090111 24 0 0.0 0.0 0.00 0.00 0.00 88 1007.0
20260508084557 24 0 0.0 0.0 0.00 0.00 0.00 87 1007.0
20260508083055 24 0 0.0 0.0 0.00 0.00 0.00 87 1007.1
20260508081610 25 0 0.0 0.0 0.00 0.00 0.00 87 1007.2
20260508080051 25 0 0.0 0.0 0.00 0.00 0.00 86 1007.4
20260508074551 25 0 0.0 0.0 0.00 0.00 0.00 86 1007.3
20260508073100 25 0 0.0 0.0 0.00 0.00 0.00 85 1007.6
20260508071613 25 0 0.0 0.0 0.00 0.00 0.00 84 1007.6
20260508070058 26 0 0.0 0.0 0.00 0.00 0.00 84 1007.8
20260508064553 26 0 0.0 0.0 0.00 0.00 0.00 84 1007.9
20260508063050 26 0 0.0 0.0 0.00 0.00 0.00 82 1008.1
20260508061551 26 0 0.0 0.0 0.00 0.00 0.00 82 1008.3
20260508060051 26 0 0.0 0.0 0.00 0.00 0.00 81 1008.4
20260508054602 27 0 0.0 0.0 0.00 0.00 0.00 80 1008.6